Rolla, MO

11:35 PM CST on December 07, 2016 (GMT -0600)
Rolla | | Change Station

Elev 1043 ft 37.94 °N, 91.76 °W | Updated 6 minutes ago

Partly Cloudy
Partly Cloudy
25.5 °F
Feels Like 26 °F
N
0.0
Wind Variable Wind from ESE
Gusts 0.0 mph

Today
High -- | Low -- °F
--% Chance of Precip.
Yesterday
High -- | Low -- °F
Precip. -- in
Pressure 30.40 in
Visibility 10.0 miles
Clouds Clear
Windchill 26 °F
Dew Point 8 °F
Humidity 48%
Rainfall Not available.
Snow Depth Not available.
7:10 AM 4:47 PM
First Quarter, 60% visible
METAR KVIH 080453Z AUTO 30012KT 10SM CLR M04/M07 A3036 RMK AO2 SLP295 T10441072 $
Pressure 30.40 in
Visibility 10.0 miles
Clouds Clear
Windchill 26 °F
Dew Point 8 °F
Humidity 48%
Rainfall Not available.
Snow Depth Not available.
7:10 AM 4:47 PM
First Quarter, 60% visible
METAR KVIH 080453Z AUTO 30012KT 10SM CLR M04/M07 A3036 RMK AO2 SLP295 T10441072 $

10-Day Weather Forecast

Almanac

Astronomy

Dec. 07, 2016 Rise Set
Actual Time
Civil Twilight
Nautical Twilight
Astronomical Twilight
Moon
Length of Visible Light
Length of Day
Tomorrow will be .
, % of the Moon is Illuminated

Today's Extremes

State Highs State Lows

Community

WunderPhotos

Upload Photos

1,956,259 photos uploaded!

WunderBlog® & News

Nearby

Air Quality

  Air Quality AQ Index Pollutant
Not available.

Snow Depth

Station Depth Elevation

Earthquake Activity

City Distance Mag. Time & Date
Minimum magnitude displayed is 2.5.

Coastal Water Temperatures

Place Temperature

Stations

Nearby Weather Stations

Station Location Temp. Windchill Dew Point Humidity Wind Precip. Elev Updated Type
                   

Watches & Warnings

There are currently no watches in effect.